Weather Service Report


442 
ASUS43 KDMX 030007
RWRIA 

WEATHER ROUNDUP FOR IOWA
NATIONAL WEATHER SERVICE DES MOINES IA
700 PM CDT THU JUL 02 2015

NOTE: "FAIR" INDICATES FEW OR NO CLOUDS BELOW 12,000 FEET WITH NO
SIGNIFICANT WEATHER AND/OR OBSTRUCTIONS TO VISIBILITY.

* - THESE STATIONS ARE NOT NWS STATIONS...THUS NOT UNDER NWS
QUALITY CONTROL.  THEY ALSO DO NOT REPORT WEATHER SUCH 
AS PRECIPITATION OR FOG.  

IAZ001>003-012>014-020>022-031>034-043>046-030100-
   NORTHWEST IOWA
  
CITY           SKY/WX    TMP DP  RH WIND       PRES   REMARKS
CARROLL *      SUNNY     66  55  68 SE9       29.98S                  
CHEROKEE *     PTSUNNY   67  60  76 SE5       29.99S                  
DENISON *      CLOUDY    64  61  88 E6        29.96S                  
LE MARS *      MOSUNNY   68  59  73 VRB3      29.99S                  
ORANGE CITY *  SUNNY     66  57  72 S5        29.99S                  
SHELDON *      SUNNY     68  59  73 E6        29.98S                  
SIOUX CITY     CLOUDY    68  60  75 E8        29.97F                  
6HR MIN TEMP:  67; 6HR MAX TEMP:  70; 6HR PCP:  0.01;                

SPENCER        CLOUDY    69  52  54 SE7       29.99F                  
6HR MIN TEMP:  69; 6HR MAX TEMP:  72;                                

STORM LAKE *   PTSUNNY   64  59  82 SE5       30.00S                  
$$
 
IAZ055>058-069>071-079>083-090>094-030100-
   SOUTHWEST IOWA
  
CITY           SKY/WX    TMP DP  RH WIND       PRES   REMARKS
ATLANTIC *     CLOUDY    68  59  73 E9        29.95F                  
AUDUBON *      LGT RAIN  66  57  72 E6        29.99S                  
CLARINDA *     CLOUDY    70  63  78 E9        29.96S                  
COUNCIL BLFS * CLOUDY    70  63  78 E9        29.95S                  
CRESTON *      MOSUNNY   68  55  64 NE12      29.96S                  
HARLAN  *      CLOUDY    68  66  94 E9        29.99S                  
LAMONI         CLOUDY    68  55  63 E6        29.95F                  
6HR MIN TEMP:  68; 6HR MAX TEMP:  71; 6HR PCP: TRACE;                

RED OAK *      CLOUDY    72  61  68 E7        29.95S                  
SHENANDOAH *   CLOUDY    72  66  83 E7        29.94S                  
$$
 
IAZ047>049-059>061-072>074-084-030100-
   CENTRAL IOWA
  
CITY           SKY/WX    TMP DP  RH WIND       PRES   REMARKS
AMES           CLOUDY    67  57  70 E3        29.97F                  
6HR MIN TEMP:  67; 6HR MAX TEMP:  70;                                

ANKENY *       SUNNY     68  57  68 CALM      29.97S                  
CHARITON *     SUNNY     66  54  63 E6        29.96F                  
DES MOINES     CLOUDY    68  53  58 NE6       29.96F                  
6HR MIN TEMP:  68; 6HR MAX TEMP:  70; 6HR PCP: TRACE;                

GRINNELL*      CLOUDY    67  54  61 E3        29.98S                  
KNOXVILLE *    MOSUNNY   68  54  60 NE3       29.95F                  
MARSHALLTOWN   CLOUDY    68  56  65 CALM      29.97F                  
6HR MIN TEMP:  68; 6HR MAX TEMP:  70;                                

PELLA *        CLOUDY    67  60  77 CALM      29.98S                  
PERRY *        PTSUNNY   66  57  72 CALM      29.98S                  
$$
 
IAZ004>006-015-016-023>025-035-036-030100-
   NORTH CENTRAL IOWA
  
CITY           SKY/WX    TMP DP  RH WIND       PRES   REMARKS
ALGONA *       SUNNY     68  54  60 S6        30.00S                  
CLARION *      SUNNY     70  54  56 S5        29.99S                  
ESTHERVILLE    PTSUNNY   68  55  63 S7        29.99F                  
6HR MIN TEMP:  68; 6HR MAX TEMP:  71;                                

FORT DODGE *   CLOUDY    66  52  59 E7        30.00S                  
MASON CITY     MOSUNNY   72  55  55 S6        30.00F                  
6HR MIN TEMP:  71; 6HR MAX TEMP:  74;                                

FOREST CITY *  SUNNY     70  54  56 SE5       29.99S                  
IOWA FALLS *     N/A     70  57  64 CALM      30.00S                  
$$

IAZ007>011-017>019-026>030-037>042-050>054-066-030100-
   NORTHEAST IOWA
  
CITY           SKY/WX    TMP DP  RH WIND       PRES   REMARKS
CEDAR RAPIDS   CLOUDY    68  55  63 E6        29.97S                  
6HR MIN TEMP:  68; 6HR MAX TEMP:  71;                                

CHARLES CITY * SUNNY     70  57  64 SE6       29.99S                  
CLINTON *      CLOUDY    68  55  64 NE8       29.98F                  
DECORAH *        N/A    N/A N/A N/A MISG        N/A                   
DUBUQUE        PTSUNNY   67  51  56 E6        29.98F                  
6HR MIN TEMP:  67; 6HR MAX TEMP:  71;                                

MONTICELLO *   SUNNY     68  54  60 E3        29.97S                  
OELWEIN *        N/A     68  55  64 NE6       29.99S                  
WATERLOO       CLOUDY    71  54  54 SE5       29.97F                  
6HR MIN TEMP:  71; 6HR MAX TEMP:  73;                                

$$
 
IAZ064-065-067-068-078-030100-
   EAST CENTRAL IOWA
  
CITY           SKY/WX    TMP DP  RH WIND       PRES   REMARKS
DAVENPORT      CLOUDY    68  56  65 NE7       29.96F                  
6HR MIN TEMP:  68; 6HR MAX TEMP:  73;                                

IOWA CITY      CLOUDY    69  54  58 NE6       29.97S                  
6HR MIN TEMP:  69; 6HR MAX TEMP:  74;                                

MT. PLEASANT * CLOUDY    72  52  49 NE6       29.95S                  
MUSCATINE *    SUNNY     70  54  56 E8        29.96S                  
QUAD CITIES    CLOUDY    70  58  65 MISG      29.95F                  
6HR MIN TEMP:  70; 6HR MAX TEMP:  73;                                

$$
 
IAZ062-063-075>077-085>089-095>099-030100-
   SOUTHEAST IOWA
  
CITY           SKY/WX    TMP DP  RH WIND       PRES   REMARKS
BURLINGTON     CLOUDY    69  59  70 NE7       29.94F                  
6HR MIN TEMP:  69; 6HR MAX TEMP:  74;                                

FAIRFIELD *    SUNNY     70  54  56 NE6       29.96S                  
FORT MADISON * SUNNY     68  61  77 CALM      29.96R                  
KEOKUK *       MOSUNNY   68  59  73 NE7       29.94S                  
OSKALOOSA *      N/A     67  57  68 CALM      29.97S                  
CENTERVILLE *  SUNNY     66  55  68 NE6       29.97S                  
OTTUMWA        CLOUDY    69  55  60 NE7       29.95S                  
6HR MIN TEMP:  68; 6HR MAX TEMP:  71;                                

WASHINGTON *   SUNNY     68  57  68 NE6       29.97F                  
$$

ABBREVIATIONS USED IN REMARKS
   TC - TEMPERATURES IN CELSIUS
  WCI - WIND CHILL INDEX
   HX - HEAT INDEX
  VSB - VISIBILITY  
$$


Return to Home page


Western Regional Climate Center, wrcc@dri.edu